Strasburg, ND

5:28 AM CDT on July 30, 2016 (GMT -0500)
Linton Municipal Airport

Weather History for K7L2 - August, 2014

Change the Weather History Date:

Saturday, August 23, 2014

  Actual Average (KBIS) Record (KBIS)
Temperature  
Mean Temperature 64 °F 68 °F  
Max Temperature 68 °F 82 °F 102 °F (1976)
Min Temperature 59 °F 54 °F 35 °F (1911)
Degree Days  
Heating Degree Days 2 2  
Month to date heating degree days 21  
Since 1 June heating degree days 131  
Since 1 July heating degree days 38  
Cooling Degree Days 0 5  
Month to date cooling degree days 145  
Year to date cooling degree days 449  
Since 1 June cooling degree days 432  
Growing Degree Days 14 (Base 50)    
Moisture  
Dew Point 65 °F    
Average Humidity 100    
Maximum Humidity 100    
Minimum Humidity 100    
Precipitation  
Precipitation 0.33 in 0.07 in 2.50 in (1968)
Month to date precipitation 1.74  
Year to date precipitation 13.27  
Snow  
Snow 0.00 in 0.00 in 0.00 in (2002)
Month to date snowfall 0.0  
Since 1 June snowfall 0.0  
Since 1 July snowfall 0.0  
Snow Depth -    
Sea Level Pressure  
Sea Level Pressure 29.88 in    
Wind  
Wind Speed 14 mph (East)    
Max Wind Speed 22 mph    
Max Gust Speed 30 mph    
Visibility 8 miles    
Events Rain    
T = Trace of Precipitation, MM = Missing Value Source: NWS Daily Summary

Daily Weather History Graph

Daily Weather History Graph

Search for Another Location

Airport or City:

Trip Planner

Search our weather history database for the weather conditions in past years. The results will help you decide how hot, cold, wet, or windy it might be!

Date:

Astronomy

Aug. 23, 2014 Rise Set
Actual Time 6:50 AM CDT 8:36 PM CDT
Civil Twilight 6:18 AM CDT 9:07 PM CDT
Nautical Twilight 5:39 AM CDT 9:46 PM CDT
Astronomical Twilight 4:56 AM CDT 10:28 PM CDT
Moon 5:05 AM CDT (8/23) 7:22 PM CDT (8/23)
Length of Visible Light 14h 49m
Length of Day
13h 45m
Waning Crescent, 3% of the Moon is Illuminated
Aug 23
Waning Crescent
Aug 25
New
Sep 2
First Quarter
Sep 8
Full
Sep 15
Last Quarter

Hourly Weather History & Observations

Time (CDT) Temp. Dew Point Humidity Pressure Visibility Wind Dir Wind Speed Gust Speed Precip Events Conditions
12:15 AM 66.2 °F 66.2 °F 100% 30.06 in 10.0 mi ENE 15.0 mph 19.6 mph N/A   Overcast
12:35 AM 66.2 °F 66.2 °F 100% 30.05 in 10.0 mi ENE 12.7 mph 20.7 mph N/A   Mostly Cloudy
12:55 AM 64.4 °F 64.4 °F 100% 30.04 in 10.0 mi East 13.8 mph - N/A   Clear
1:15 AM 64.4 °F 64.4 °F 100% 30.05 in 10.0 mi ENE 10.4 mph 17.3 mph N/A   Mostly Cloudy
1:35 AM 64.4 °F 64.4 °F 100% 30.05 in 10.0 mi East 10.4 mph 18.4 mph N/A   Mostly Cloudy
1:55 AM 64.4 °F 64.4 °F 100% 30.04 in 10.0 mi East 16.1 mph - N/A   Overcast
2:15 AM 64.4 °F 64.4 °F 100% 30.04 in 10.0 mi East 16.1 mph 20.7 mph N/A   Overcast
2:35 AM 64.4 °F 64.4 °F 100% 30.03 in 10.0 mi East 15.0 mph 21.9 mph N/A   Overcast
2:55 AM 64.4 °F 64.4 °F 100% 30.03 in 10.0 mi East 12.7 mph - N/A   Overcast
3:15 AM 64.4 °F 64.4 °F 100% 30.03 in 10.0 mi East 12.7 mph 21.9 mph N/A   Overcast
3:35 AM 64.4 °F 64.4 °F 100% 30.03 in 10.0 mi East 11.5 mph 19.6 mph N/A   Overcast
4:15 AM 64.4 °F 64.4 °F 100% 30.00 in 10.0 mi ENE 15.0 mph 18.4 mph N/A   Overcast
4:35 AM 64.4 °F 64.4 °F 100% 30.01 in 10.0 mi East 12.7 mph 20.7 mph N/A   Overcast
4:55 AM 62.6 °F 62.6 °F 100% 30.01 in 10.0 mi East 13.8 mph 19.6 mph N/A   Overcast
5:15 AM 62.6 °F 62.6 °F 100% 30.02 in 10.0 mi ENE 12.7 mph - N/A   Overcast
5:35 AM 62.6 °F 62.6 °F 100% 30.02 in 10.0 mi ENE 10.4 mph 16.1 mph N/A   Overcast
6:15 AM 62.6 °F 62.6 °F 100% 30.00 in 9.0 mi ENE 10.4 mph 18.4 mph N/A Rain Light Rain
6:35 AM 60.8 °F 60.8 °F 100% 29.99 in 8.0 mi ENE 12.7 mph - 0.01 in Rain Light Rain
7:15 AM 60.8 °F 60.8 °F 100% 29.98 in 5.0 mi ENE 11.5 mph 17.3 mph 0.02 in Rain Light Rain
7:35 AM 60.8 °F 60.8 °F 100% 29.99 in 5.0 mi ENE 11.5 mph 19.6 mph 0.03 in Rain Light Rain
7:55 AM 60.8 °F 60.8 °F 100% 29.99 in 3.0 mi ENE 16.1 mph - 0.05 in Rain Light Rain
8:15 AM 59.0 °F 59.0 °F 100% 29.98 in 3.0 mi ENE 13.8 mph 20.7 mph 0.04 in Rain Rain
8:35 AM 59.0 °F 59.0 °F 100% 29.97 in 3.0 mi ENE 12.7 mph 18.4 mph 0.12 in Rain Rain
8:55 AM 59.0 °F 59.0 °F 100% 29.97 in 3.0 mi ENE 12.7 mph 18.4 mph 0.17 in Rain Rain
9:15 AM 60.8 °F 60.8 °F 100% 29.97 in 3.0 mi ENE 12.7 mph - 0.02 in Rain Light Rain
9:35 AM 60.8 °F 60.8 °F 100% 29.96 in 4.0 mi ENE 12.7 mph 18.4 mph 0.06 in Rain Light Rain
9:55 AM 60.8 °F 60.8 °F 100% 29.94 in 8.0 mi NE 13.8 mph 20.7 mph 0.07 in Rain Light Rain
10:15 AM 60.8 °F 60.8 °F 100% 29.93 in 5.0 mi ENE 15.0 mph 21.9 mph 0.01 in Rain Light Rain
10:35 AM 62.6 °F 62.6 °F 100% 29.93 in 9.0 mi ENE 12.7 mph 18.4 mph 0.01 in Rain Light Rain
10:55 AM 62.6 °F 62.6 °F 100% 29.93 in 10.0 mi ENE 15.0 mph 19.6 mph 0.01 in   Overcast
11:15 AM 62.6 °F 62.6 °F 100% 29.92 in 10.0 mi ENE 16.1 mph 24.2 mph N/A   Overcast
11:35 AM 62.6 °F 62.6 °F 100% 29.92 in 10.0 mi ENE 16.1 mph 24.2 mph N/A   Overcast
11:55 AM 62.6 °F 62.6 °F 100% 29.90 in 10.0 mi ENE 13.8 mph 20.7 mph N/A   Overcast
12:15 PM 62.6 °F 62.6 °F 100% 29.89 in 10.0 mi East 17.3 mph 27.6 mph N/A   Overcast
12:35 PM 64.4 °F 64.4 °F 100% 29.90 in 10.0 mi East 16.1 mph 24.2 mph N/A   Overcast
12:55 PM 64.4 °F 64.4 °F 100% 29.89 in 9.0 mi East 15.0 mph 19.6 mph N/A   Overcast
1:15 PM 64.4 °F 64.4 °F 100% 29.88 in 10.0 mi East 15.0 mph 25.3 mph N/A   Overcast
1:35 PM 64.4 °F 64.4 °F 100% 29.87 in 10.0 mi East 13.8 mph 21.9 mph N/A   Overcast
1:55 PM 64.4 °F 64.4 °F 100% 29.86 in 5.0 mi East 17.3 mph 20.7 mph N/A   Overcast
2:15 PM 64.4 °F 64.4 °F 100% 29.84 in 2.0 mi East 15.0 mph 20.7 mph 0.01 in Rain Light Rain
2:35 PM 66.2 °F 66.2 °F 100% 29.83 in 10.0 mi East 17.3 mph 21.9 mph 0.01 in   Overcast
2:55 PM 66.2 °F 66.2 °F 100% 29.82 in 10.0 mi East 17.3 mph 25.3 mph 0.01 in   Overcast
3:15 PM 66.2 °F 66.2 °F 100% 29.81 in 10.0 mi East 20.7 mph 27.6 mph N/A   Overcast
3:35 PM 66.2 °F 66.2 °F 100% 29.80 in 10.0 mi East 21.9 mph 28.8 mph N/A   Overcast
3:55 PM 66.2 °F 66.2 °F 100% 29.79 in 3.0 mi East 21.9 mph 27.6 mph N/A   Overcast
4:15 PM 66.2 °F 66.2 °F 100% 29.78 in 3.0 mi ESE 18.4 mph 27.6 mph N/A Rain Light Rain
4:35 PM 66.2 °F 66.2 °F 100% 29.77 in 2.5 mi ESE 17.3 mph 25.3 mph 0.01 in Rain Light Rain
4:55 PM 66.2 °F 66.2 °F 100% 29.77 in 4.0 mi ESE 21.9 mph 28.8 mph 0.01 in   Overcast
5:15 PM 66.2 °F 66.2 °F 100% 29.77 in 8.0 mi ESE 17.3 mph 29.9 mph N/A   Overcast
5:35 PM 68.0 °F 68.0 °F 100% 29.76 in 9.0 mi East 13.8 mph 25.3 mph N/A   Overcast
5:55 PM 68.0 °F 68.0 °F 100% 29.75 in 3.0 mi ESE 16.1 mph 21.9 mph N/A   Overcast
6:15 PM 68.0 °F 68.0 °F 100% 29.75 in 3.0 mi ESE 12.7 mph - N/A   Overcast
6:35 PM 68.0 °F 68.0 °F 100% 29.75 in 9.0 mi ESE 10.4 mph - N/A   Overcast
6:55 PM 68.0 °F 68.0 °F 100% 29.74 in 9.0 mi ESE 18.4 mph 26.5 mph N/A   Overcast
7:15 PM 68.0 °F 68.0 °F 100% 29.74 in 10.0 mi ESE 6.9 mph - N/A   Overcast
7:35 PM 68.0 °F 68.0 °F 100% 29.75 in 10.0 mi South 11.5 mph 20.7 mph N/A   Overcast
7:55 PM 68.0 °F 68.0 °F 100% 29.74 in 10.0 mi SSE 10.4 mph 17.3 mph N/A   Overcast
8:15 PM 68.0 °F 68.0 °F 100% 29.74 in 10.0 mi SE 13.8 mph 19.6 mph N/A   Overcast
8:35 PM 68.0 °F 68.0 °F 100% 29.73 in 10.0 mi ESE 12.7 mph 19.6 mph N/A   Mostly Cloudy
8:55 PM 68.0 °F 68.0 °F 100% 29.72 in 10.0 mi ESE 10.4 mph 16.1 mph N/A   Scattered Clouds
9:15 PM 66.2 °F 66.2 °F 100% 29.72 in 10.0 mi SE 9.2 mph 16.1 mph N/A   Mostly Cloudy
9:35 PM 66.2 °F 66.2 °F 100% 29.71 in 10.0 mi SE 9.2 mph - N/A   Mostly Cloudy
9:55 PM 66.2 °F 66.2 °F 100% 29.71 in 10.0 mi SE 9.2 mph - N/A   Scattered Clouds
10:15 PM 66.2 °F 66.2 °F 100% 29.71 in 10.0 mi SE 8.1 mph - N/A   Clear
10:35 PM 66.2 °F 66.2 °F 100% 29.71 in 10.0 mi SE 8.1 mph - N/A   Clear
10:55 PM 66.2 °F 66.2 °F 100% 29.71 in 10.0 mi SE 8.1 mph - N/A   Mostly Cloudy
11:15 PM 68.0 °F 68.0 °F 100% 29.71 in 10.0 mi SE 9.2 mph - N/A   Overcast
11:35 PM 68.0 °F 68.0 °F 100% 29.69 in 10.0 mi SSE 9.2 mph - N/A   Overcast
11:55 PM 68.0 °F 68.0 °F 100% 29.69 in 10.0 mi SSE 4.6 mph - N/A   Overcast